STARLINK-2745, 48671

Orbit data source: Space-Track

STARLINK-2745, 48671 is a payload satellite owned by SpaceX/Seattle (US) in LEO that was launched on Wed, 26 May 2021 UTC via an FALCON 9 launch vehicle from the Air Force Eastern Test Range (AFETR). Payload-class satellites include a variety of spacecraft equipped with specific instruments for various scientific and technological missions. These include communications satellites like Starlink; space stations such as the ISS; scientific satellites like the Hubble; Earth observation satellites from companies like Planet Labs, Umbra, and HawkEye 360; GPS; miniature CubeSats for education and research; and military/defense satellites.

Loading next visibility...
Identifier
48671, 2021-044AK
Orbit
LEO
Country
Flag of USUS
Related business
Manufacturer
SpaceX/Seattle
Mission
Partially operational Commercial Communications
Bus & Motor
STARLINK, Unknown motor
Mass
260 kg wet, ~248 kg dry
Launch date (UTC)
2021-05-26 (5 years ago)
Launch vehicle
FALCON 9
Launch site
Air Force Eastern Test Range (AFETR)
Object type
Payload
Rocket body
Debris
Shape & HBR
Box + 1 Pan, 10.1 m
Radar Cross Section
13.562 m², Large (>1 m²)

Expand to show TLE details & history
Last TLE update: 2 days ago

TLE from 2 days ago
0 STARLINK-2745
1 48671U 21044AK  26171.48152873  .00007173  00000-0  26059-3 0  9995
2 48671  53.1584 356.6604 0001268  99.0145 261.0999 15.29365123279549
Epoch: 2026-06-20T11:33Z
TLE epoch observation values (Epoch: 2026-06-20T11:33:24.082Z)
Latitude
-0°
Longitude
-85.38547°
Altitude
478.743 km
Speed
7.627 km/s
True Right ascension
23h 46m 38s
True Declination
0° 00' 00"
Sunlit
Object was in daylight at epoch
Visualization orbit readout
Latitude
Unknown
Longitude
Unknown
Altitude
Unknown
Speed
Unknown
Apparent Right ascension
Unknown
Apparent Declination
Unknown
Sunlit
N/A
Visualization observer readout
Local Sidereal Time
21:36:42
Azimuth
Unknown
Elevation
Unknown
Doppler factor
Unknown
Orbital elements
Apogee altitude
478.835 km
Perigee altitude
477.096 km
Semi-major axis
6,856.103 km
Eccentricity
0.00013
Inclination
53.1584°
RAAN
356.6604°
Arg. of periapsis
99.0145°
True anomaly
261.08555°
Mean anomaly
261.0999°
Eccentric anomaly
261.09272°
Mean motion
3.8232 °/min
Orbital period
94.16 mins
BSTAR
0.00026059
Loading maneuver chart data...
Computing Atmospheric mass density...

Documentation

Showing up to 5 results
|